N5PLO-10 Weather Reports


time (UTC)temp
C
wind
direction
speed
KPH
gust
KPH
rain 1hr
cm
rain 24hr
cm
rain mn
cm
humidity
%
barometer
mb
20260505041607 22 265 0.0 3.2 0.00 0.03 0.03 82 1015.5
20260505041105 22 242 0.0 1.6 0.00 0.03 0.03 81 1015.5
20260505040602 22 197 1.6 1.6 0.00 0.03 0.03 81 1015.5
20260505040059 22 225 0.0 3.2 0.00 0.03 0.03 80 1015.9
20260505035555 22 211 3.2 3.2 0.00 0.03 0.03 80 1015.6
20260505035051 22 223 1.6 1.6 0.00 0.03 0.03 80 1015.7
20260505034548 22 228 3.2 4.8 0.00 0.03 0.03 80 1015.8
20260505034045 22 234 1.6 3.2 0.00 0.03 0.03 80 1015.8
20260505033542 22 254 1.6 3.2 0.00 0.03 0.03 80 1016.2
20260505033040 22 258 0.0 1.6 0.00 0.03 0.03 80 1016.2
20260505032538 22 206 1.6 3.2 0.00 0.03 0.03 80 1015.9
20260505032034 22 295 3.2 3.2 0.00 0.03 0.03 80 1016.1
20260505031531 22 232 1.6 3.2 0.00 0.03 0.03 80 1016.0
20260505031027 22 216 1.6 3.2 0.00 0.03 0.03 80 1016.0
20260505030525 22 278 0.0 1.6 0.00 0.03 0.03 80 1016.1
20260505030021 22 233 1.6 4.8 0.00 0.03 0.03 80 1015.8
20260505025517 23 223 1.6 1.6 0.00 0.03 0.03 80 1015.7
20260505025016 23 214 0.0 3.2 0.00 0.03 0.03 79 1016.0
20260505024512 23 255 1.6 3.2 0.00 0.03 0.03 79 1015.9
20260505024009 23 0 1.6 1.6 0.00 0.03 0.03 79 1015.8
20260505023506 23 224 1.6 8.0 0.00 0.03 0.03 79 1016.3
20260505023004 23 273 0.0 0.0 0.00 0.03 0.03 79 1016.1
20260505022502 23 220 0.0 1.6 0.00 0.03 0.03 79 1016.2
20260505021958 23 158 3.2 3.2 0.00 0.03 0.03 79 1016.0
20260505021455 23 244 1.6 3.2 0.00 0.03 0.03 78 1016.0
20260505020950 23 67 1.6 3.2 0.00 0.03 0.03 78 1015.9
20260505020446 23 224 1.6 1.6 0.00 0.03 0.03 78 1016.0
20260505015943 23 266 1.6 8.0 0.00 0.03 0.03 77 1015.8
20260505015440 23 76 0.0 3.2 0.00 0.03 0.03 77 1016.1
20260505014937 23 147 3.2 9.7 0.00 0.03 0.03 76 1015.8
20260505014434 23 280 0.0 3.2 0.00 0.03 0.03 76 1015.9
20260505013931 23 216 0.0 1.6 0.00 0.03 0.03 76 1015.9
20260505013428 23 169 1.6 3.2 0.00 0.03 0.03 76 1015.9
20260505012926 23 21 1.6 1.6 0.00 0.03 0.03 76 1015.8
20260505012424 23 223 0.0 1.6 0.00 0.03 0.03 76 1015.7
20260505011920 23 220 0.0 4.8 0.00 0.03 0.03 76 1015.7
20260505011416 23 357 1.6 3.2 0.00 0.03 0.03 76 1015.8
20260505010913 23 236 3.2 3.2 0.00 0.03 0.03 76 1015.9
20260505010409 23 230 0.0 3.2 0.00 0.03 0.03 76 1015.8
20260505005905 23 234 0.0 1.6 0.00 0.03 0.03 75 1016.0
20260505005402 24 268 0.0 1.6 0.00 0.03 0.03 74 1015.7
20260505004859 24 247 0.0 3.2 0.00 0.03 0.03 74 1015.8
20260505004356 24 277 0.0 1.6 0.00 0.03 0.03 73 1015.8
20260505003853 24 267 0.0 1.6 0.00 0.03 0.03 72 1015.6
20260505003350 25 242 0.0 3.2 0.00 0.03 0.03 71 1015.7
20260505002846 25 235 0.0 1.6 0.00 0.03 0.03 71 1015.8
20260505002343 25 215 0.0 3.2 0.00 0.03 0.03 70 1015.8
20260505001842 25 264 0.0 3.2 0.00 0.03 0.03 71 1016.0
20260505001338 25 246 1.6 4.8 0.00 0.03 0.03 71 1016.0
20260505000835 25 252 0.0 1.6 0.00 0.03 0.03 71 1016.1
20260505000333 25 243 0.0 1.6 0.00 0.03 0.03 71 1016.0
20260504235830 25 275 3.2 3.2 0.00 0.03 0.03 70 1016.3
20260504235327 25 250 0.0 1.6 0.00 0.03 0.03 70 1016.0
20260504234823 25 235 0.0 1.6 0.00 0.03 0.03 70 1016.1
20260504234321 25 214 1.6 3.2 0.00 0.03 0.03 69 1016.1
20260504233817 25 231 1.6 1.6 0.00 0.03 0.03 69 1016.2
20260504233313 25 166 1.6 9.7 0.00 0.03 0.03 69 1016.2
20260504232810 26 270 1.6 4.8 0.00 0.03 0.03 68 1016.3
20260504232307 26 229 0.0 0.0 0.00 0.03 0.03 67 1016.3
20260504231804 26 285 0.0 4.8 0.00 0.03 0.03 67 1016.5
20260504231300 26 240 0.0 1.6 0.00 0.03 0.03 67 1016.5
20260504230756 26 226 3.2 3.2 0.00 0.03 0.03 66 1016.5
20260504230254 26 233 1.6 3.2 0.00 0.03 0.03 66 1016.8
20260504225753 26 221 3.2 3.2 0.00 0.03 0.03 65 1016.5
20260504225249 26 217 1.6 4.8 0.00 0.03 0.03 65 1016.5
20260504224746 26 143 4.8 11.3 0.00 0.03 0.03 64 1016.6
20260504224243 26 234 3.2 3.2 0.00 0.03 0.03 63 1016.6
20260504223740 27 192 1.6 3.2 0.00 0.03 0.03 63 1016.8
20260504223235 27 229 1.6 3.2 0.00 0.03 0.03 62 1017.0
20260504222733 27 295 1.6 1.6 0.00 0.03 0.03 60 1016.9
20260504222229 27 51 1.6 4.8 0.00 0.03 0.03 61 1017.0
20260504221727 27 261 0.0 1.6 0.00 0.03 0.03 60 1017.1
20260504221224 27 277 1.6 1.6 0.00 0.03 0.03 60 1017.0
20260504220720 27 332 0.0 1.6 0.00 0.03 0.03 59 1016.9
20260504220218 27 227 1.6 1.6 0.00 0.03 0.03 59 1017.1
20260504215714 27 284 3.2 3.2 0.00 0.03 0.03 59 1017.3
20260504215212 27 198 1.6 3.2 0.00 0.03 0.03 58 1017.1
20260504214707 27 276 1.6 3.2 0.00 0.03 0.03 59 1017.3
20260504214204 28 249 3.2 4.8 0.00 0.03 0.03 58 1017.2
20260504213701 28 92 1.6 3.2 0.00 0.03 0.03 57 1017.2
20260504213157 28 133 1.6 3.2 0.00 0.03 0.03 57 1017.2
20260504212654 28 262 1.6 1.6 0.00 0.03 0.03 58 1017.3
20260504212150 28 209 1.6 3.2 0.00 0.03 0.03 56 1017.4
20260504211648 29 356 3.2 4.8 0.00 0.03 0.03 55 1017.4
20260504211144 30 276 1.6 3.2 0.00 0.03 0.03 54 1017.4
20260504210642 28 0 0.0 1.6 0.00 0.03 0.03 54 1017.5
20260504210138 29 243 1.6 3.2 0.00 0.03 0.03 55 1017.8
20260504205636 29 70 1.6 3.2 0.00 0.03 0.03 53 1017.5
20260504205133 28 304 1.6 1.6 0.00 0.03 0.03 57 1017.9
20260504204632 28 273 1.6 3.2 0.00 0.03 0.03 55 1018.0
20260504204130 28 271 1.6 1.6 0.00 0.03 0.03 56 1018.0
20260504203628 28 243 0.0 3.2 0.00 0.03 0.03 58 1018.0
20260504203125 28 255 1.6 1.6 0.00 0.03 0.03 54 1018.1
20260504202620 28 284 0.0 4.8 0.00 0.03 0.03 56 1018.1
20260504202117 28 260 1.6 4.8 0.00 0.03 0.03 56 1018.4
20260504201614 28 225 1.6 1.6 0.00 0.03 0.03 54 1018.3
20260504201112 29 187 0.0 3.2 0.00 0.03 0.03 53 1018.5
20260504200609 28 262 0.0 1.6 0.00 0.03 0.03 54 1018.5
20260504200105 28 272 1.6 1.6 0.00 0.03 0.03 53 1018.5
20260504195601 29 225 1.6 3.2 0.00 0.03 0.03 53 1018.7
20260504195057 28 303 1.6 1.6 0.00 0.03 0.03 53 1018.7
20260504194554 28 266 1.6 3.2 0.00 0.03 0.03 56 1018.8
20260504194050 27 113 3.2 4.8 0.00 0.03 0.03 56 1018.8
20260504193546 27 122 3.2 4.8 0.00 0.03 0.03 55 1018.9
20260504193045 28 262 0.0 3.2 0.00 0.03 0.03 53 1018.8
20260504192543 28 12 1.6 3.2 0.00 0.03 0.03 53 1018.8
20260504192041 29 236 1.6 11.3 0.00 0.03 0.03 52 1019.0
20260504191538 30 15 3.2 3.2 0.00 0.03 0.03 50 1019.2
20260504191034 29 287 1.6 4.8 0.00 0.03 0.03 54 1019.1
20260504190531 29 263 3.2 3.2 0.00 0.03 0.03 52 1019.2
20260504190027 28 280 0.0 3.2 0.00 0.03 0.03 51 1019.1
20260504185524 30 247 1.6 3.2 0.00 0.03 0.03 53 1019.1
20260504185021 29 269 0.0 3.2 0.00 0.03 0.03 52 1019.2
20260504184516 29 222 0.0 1.6 0.00 0.03 0.03 52 1019.2
20260504184012 29 264 0.0 3.2 0.00 0.03 0.03 52 1019.2
20260504183509 28 319 0.0 1.6 0.00 0.03 0.03 53 1019.2
20260504183008 28 230 3.2 4.8 0.00 0.03 0.03 54 1019.2
20260504182504 29 290 3.2 9.7 0.00 0.03 0.03 51 1019.2
20260504182001 28 349 1.6 3.2 0.00 0.03 0.03 52 1019.0
20260504181458 28 315 0.0 1.6 0.00 0.03 0.03 54 1019.1
20260504180956 28 253 1.6 4.8 0.00 0.03 0.03 53 1019.6
20260504180455 28 183 3.2 4.8 0.00 0.03 0.03 52 1019.4
20260504175953 28 271 1.6 3.2 0.00 0.03 0.03 53 1019.4
20260504175450 29 268 3.2 3.2 0.00 0.03 0.03 52 1019.3
20260504174947 28 235 1.6 3.2 0.00 0.03 0.03 52 1019.6
20260504174445 28 241 1.6 3.2 0.00 0.03 0.03 53 1019.3
20260504173942 27 235 3.2 4.8 0.00 0.03 0.03 57 1019.4
20260504173438 27 220 1.6 3.2 0.00 0.03 0.03 56 1019.5
20260504172936 26 245 1.6 4.8 0.00 0.03 0.03 57 1019.3
20260504172432 27 270 3.2 8.0 0.00 0.03 0.03 55 1019.5
20260504171928 27 250 0.0 1.6 0.00 0.03 0.03 55 1019.4
20260504171426 27 22 1.6 1.6 0.00 0.03 0.03 55 1019.5
20260504170923 28 221 0.0 3.2 0.00 0.03 0.03 56 1019.6
20260504170419 28 333 1.6 3.2 0.00 0.03 0.03 53 1019.8
20260504160338 26 258 1.6 3.2 0.00 0.03 0.03 58 1020.1
20260504150802 25 207 1.6 1.6 0.00 0.03 0.03 62 1019.6
20260504150259 24 263 0.0 3.2 0.00 0.03 0.03 63 1019.7
20260504141229 21 223 1.6 3.2 0.00 0.03 0.03 68 1019.1
20260504140726 21 309 0.0 3.2 0.00 0.03 0.03 70 1018.8
20260504140221 20 236 1.6 1.6 0.00 0.03 0.03 70 1018.8
20260504130650 17 252 0.0 1.6 0.00 0.03 0.03 82 1018.8
20260504130146 16 264 0.0 0.0 0.00 0.03 0.03 87 1018.7
20260504120110 13 246 0.0 0.0 0.00 0.03 0.03 95 1018.4
20260504110537 13 245 0.0 0.0 0.00 0.03 0.03 93 1018.3
20260504100448 13 245 0.0 0.0 0.00 0.03 0.03 91 1018.6
20260504081841 15 245 0.0 0.0 0.00 0.00 0.00 87 1019.7
20260504081338 15 245 0.0 0.0 0.00 0.00 0.00 87 1019.7
20260504080834 15 245 0.0 0.0 0.00 0.00 0.00 86 1019.9
20260504080331 15 245 0.0 0.0 0.00 0.00 0.00 85 1019.9
20260504070258 15 246 0.0 0.0 0.00 0.00 0.00 83 1021.1
20260504060219 16 246 0.0 0.0 0.00 0.00 0.00 80 1021.8
20260504050646 16 246 0.0 0.0 0.00 0.00 0.00 78 1022.2
20260504050143 16 246 0.0 0.0 0.00 0.00 0.00 78 1022.4
20260504045641 16 246 0.0 0.0 0.00 0.13 0.13 77 1022.3
20260504045141 16 246 0.0 0.0 0.00 0.13 0.13 75 1022.4
20260504044639 16 246 0.0 0.0 0.00 0.13 0.13 74 1022.6
20260504044135 16 246 0.0 0.0 0.00 0.13 0.13 74 1022.5
20260504043632 16 246 0.0 0.0 0.00 0.13 0.13 74 1022.4